Date String (YYYY-MM-DD hh:mm:ss) UTC,Instrument flags,Ambient pressure (hPa),Sample flow (lpm),Bypass flow (lpm),Sample temperature (°C),Ambient temperature (°C),ASC tube jacket temperature (°C),LED temperature (°C),Box temperature (°C),Sample RH (%),Span deviation,Mass concentration (μg/m³),Mass concentration (μg/m³),Mass concentration (μg/m³)
DateTimeUTC,F1_M11,P_M11,Q1_M11,Q2_M11,T1_M11,T2_M11,T3_M11,T4_M11,T5_M11,U1_M11,ZSPAN_M11,X0_M11,X2_M11,X1_M11
2022-02-22 20:00:00,,0825.8,5.00,0.00,22.3,21.3,00.0,31.5,23.9,03.8,0000.8,0008.56,0004.90,0004.49
2022-02-22 20:01:00,,0825.8,5.00,0.00,22.3,21.6,00.0,31.5,23.9,03.8,0001.7,0008.35,0004.89,0004.49
2022-02-22 20:02:00,,0825.8,5.00,0.00,22.4,22.4,00.0,31.5,24.2,03.8,0001.9,0008.28,0004.85,0004.48
2022-02-22 20:03:00,,0825.8,5.00,0.00,22.5,22.9,00.0,31.6,24.4,03.8,0001.0,0008.22,0004.84,0004.47
2022-02-22 20:04:00,,0825.9,5.02,0.00,22.6,22.7,00.0,31.6,24.4,03.7,0000.6,0008.02,0004.87,0004.48
2022-02-22 20:05:00,,0825.8,4.99,0.00,22.5,22.5,00.0,31.5,24.3,03.7,0000.8,0008.01,0004.88,0004.47
2022-02-22 20:06:00,,0825.8,5.01,0.00,22.5,22.3,00.0,31.5,24.1,03.7,0000.3,0008.11,0004.92,0004.47
2022-02-22 20:07:00,,0825.7,5.00,0.00,22.4,22.1,00.0,31.5,24.0,03.7,0001.7,0008.04,0004.94,0004.48
2022-02-22 20:08:00,,0825.7,5.00,0.00,22.4,21.8,00.0,31.5,24.0,03.5,0001.8,0008.10,0004.96,0004.49
2022-02-22 20:09:00,,0825.8,5.01,0.00,22.3,21.7,00.0,31.5,24.0,03.6,0001.9,0008.22,0004.98,0004.49
2022-02-22 20:10:00,,0825.8,5.00,0.00,22.3,21.6,00.0,31.4,23.9,03.6,0001.8,0008.32,0005.02,0004.51
2022-02-22 20:11:00,,0825.9,5.00,0.00,22.3,21.5,00.0,31.4,23.9,03.5,0001.8,0008.38,0005.02,0004.52
2022-02-22 20:12:00,,0825.9,5.00,0.00,22.2,21.5,00.0,31.4,23.8,03.4,0001.0,0008.58,0005.05,0004.56
2022-02-22 20:13:00,,0825.9,5.00,0.00,22.2,21.4,00.0,31.4,23.8,03.5,0000.0,0008.65,0005.09,0004.58
2022-02-22 20:14:00,,0825.9,4.99,0.00,22.2,21.8,00.0,31.4,23.9,03.6,0000.0,0008.67,0005.10,0004.59
2022-02-22 20:15:00,,0825.9,5.00,0.00,22.4,22.7,00.0,31.4,24.2,03.6,0000.0,0008.62,0005.10,0004.61
2022-02-22 20:16:00,,0825.9,5.00,0.00,22.5,23.1,00.0,31.4,24.4,03.6,0000.0,0008.58,0005.10,0004.63
2022-02-22 20:17:00,,0825.9,5.00,0.00,22.5,22.8,00.0,31.4,24.4,03.2,0000.0,0008.59,0005.13,0004.66
2022-02-22 20:18:00,,0825.9,5.01,0.00,22.5,22.5,00.0,31.4,24.4,03.2,0000.0,0008.93,0005.12,0004.67
2022-02-22 20:19:00,,0825.9,4.99,0.00,22.5,22.3,00.0,31.4,24.3,03.1,0000.0,0009.29,0005.14,0004.68
2022-02-22 20:20:00,,0825.8,5.01,0.00,22.5,22.2,00.0,31.4,24.2,03.3,0000.0,0009.21,0005.15,0004.70
2022-02-22 20:21:00,,0825.9,5.00,0.00,22.5,22.0,00.0,31.4,24.2,03.3,0000.0,0009.76,0005.15,0004.72
2022-02-22 20:22:00,,0825.8,5.00,0.00,22.4,21.8,00.0,31.4,24.1,03.3,0000.0,0009.87,0005.20,0004.74
2022-02-22 20:23:00,,0825.8,5.00,0.00,22.4,21.7,00.0,31.4,24.1,03.4,0000.0,0009.70,0005.21,0004.74
2022-02-22 20:24:00,,0825.9,5.00,0.00,22.4,21.6,00.0,31.4,24.1,03.4,0000.0,0009.82,0005.24,0004.75
2022-02-22 20:25:00,,0825.9,4.99,0.00,22.3,21.5,00.0,31.4,24.0,03.3,0000.0,0009.95,0005.25,0004.77
2022-02-22 20:26:00,,0825.8,5.00,0.00,22.3,21.5,00.0,31.4,24.0,03.3,0000.0,0010.00,0005.28,0004.79
2022-02-22 20:27:00,,0825.9,5.00,0.00,22.3,21.4,00.0,31.4,24.0,03.4,0000.0,0010.03,0005.29,0004.79
2022-02-22 20:28:00,,0825.9,5.00,0.00,22.3,21.4,00.0,31.3,24.0,03.4,0000.0,0010.05,0005.28,0004.79
2022-02-22 20:29:00,,0825.9,5.01,0.00,22.3,21.5,00.0,31.3,24.0,03.4,0000.0,0009.77,0005.28,0004.80
2022-02-22 20:30:00,,0825.8,5.00,0.00,22.3,21.5,00.0,31.3,24.0,03.3,0000.0,0009.98,0005.27,0004.81
2022-02-22 20:31:00,,0825.8,4.99,0.00,22.3,21.9,00.0,31.3,24.0,03.3,0000.0,0009.95,0005.27,0004.81
2022-02-22 20:32:00,,0825.9,5.01,0.00,22.5,22.8,00.0,31.4,24.3,03.1,0000.0,0009.35,0005.27,0004.83
2022-02-22 20:33:00,,0825.9,4.98,0.00,22.6,23.2,00.0,31.4,24.6,03.2,0001.8,0009.25,0005.26,0004.83
2022-02-22 20:34:00,,0825.9,4.99,0.00,22.6,22.9,00.0,31.4,24.6,03.1,0002.8,0009.32,0005.26,0004.84
2022-02-22 20:35:00,,0825.9,5.01,0.00,22.6,22.7,00.0,31.5,24.5,03.1,0002.9,0009.63,0005.24,0004.84
2022-02-22 20:36:00,,0825.9,4.98,0.00,22.6,22.5,00.0,31.5,24.5,02.9,0002.1,0010.17,0005.26,0004.84
2022-02-22 20:37:00,,0825.9,5.01,0.00,22.6,22.3,00.0,31.5,24.4,02.9,0001.6,0010.17,0005.27,0004.84
2022-02-22 20:38:00,,0825.8,5.01,0.00,22.6,22.1,00.0,31.5,24.4,02.7,0001.1,0010.19,0005.27,0004.85
2022-02-22 20:39:00,,0825.8,5.00,0.00,22.6,22.0,00.0,31.5,24.4,02.7,0001.5,0010.13,0005.29,0004.87
2022-02-22 20:40:00,,0825.8,4.99,0.00,22.6,22.0,00.0,31.5,24.4,02.9,0000.9,0009.98,0005.29,0004.87
2022-02-22 20:41:00,,0825.8,5.00,0.00,22.6,21.9,00.0,31.5,24.4,02.9,0000.9,0009.58,0005.30,0004.87
2022-02-22 20:42:00,,0825.8,5.00,0.00,22.6,21.9,00.0,31.5,24.4,02.8,0001.4,0009.83,0005.30,0004.88
2022-02-22 20:43:00,,0825.9,5.00,0.00,22.6,21.9,00.0,31.5,24.3,02.8,0001.8,0009.80,0005.29,0004.87
2022-02-22 20:44:00,,0825.9,5.00,0.00,22.6,21.9,00.0,31.5,24.3,02.8,0002.1,0009.75,0005.26,0004.85
2022-02-22 20:45:00,,0825.9,5.00,0.00,22.5,21.7,00.0,31.5,24.2,02.7,0002.2,0009.62,0005.26,0004.85
2022-02-22 20:46:00,,0825.9,5.01,0.00,22.5,21.6,00.0,31.5,24.2,02.7,0001.8,0009.22,0005.28,0004.86
2022-02-22 20:47:00,,0825.9,5.00,0.00,22.4,21.6,00.0,31.4,24.1,02.8,0000.3,0008.70,0005.30,0004.88
2022-02-22 20:48:00,,0825.9,4.99,0.00,22.4,21.6,00.0,31.4,24.2,02.9,0001.7,0008.74,0005.29,0004.87
2022-02-22 20:49:00,,0825.9,5.00,0.00,22.4,21.6,00.0,31.4,24.1,02.9,0000.0,0008.80,0005.30,0004.87
2022-02-22 20:50:00,,0825.9,5.00,0.00,22.4,21.6,00.0,31.4,24.1,03.2,0000.0,0008.88,0005.33,0004.88
2022-02-22 20:51:00,,0825.8,5.00,0.00,22.4,21.6,00.0,31.4,24.2,03.7,0000.0,0008.90,0005.33,0004.87
2022-02-22 20:52:00,,0825.9,4.99,0.00,22.4,21.6,00.0,31.4,24.2,03.7,0000.0,0008.81,0005.31,0004.85
2022-02-22 20:53:00,,0826.0,5.00,0.00,22.4,21.6,00.0,31.4,24.2,03.7,0000.0,0008.60,0005.30,0004.83
2022-02-22 20:54:00,,0826.0,5.00,0.00,22.4,21.7,00.0,31.4,24.2,03.7,0001.7,0008.60,0005.29,0004.82
2022-02-22 20:55:00,,0826.0,4.99,0.00,22.5,22.3,00.0,31.4,24.3,03.7,0002.6,0008.58,0005.28,0004.82
2022-02-22 20:56:00,,0826.0,5.00,0.00,22.7,23.1,00.0,31.5,24.6,03.7,0002.1,0008.63,0005.29,0004.81
2022-02-22 20:57:00,,0826.0,5.00,0.00,22.7,23.1,00.0,31.5,24.7,03.6,0001.7,0008.57,0005.28,0004.80
2022-02-22 20:58:00,,0826.0,5.01,0.00,22.8,22.9,00.0,31.5,24.7,03.6,0001.5,0008.49,0005.22,0004.76
2022-02-22 20:59:00,,0826.0,4.99,0.00,22.7,22.7,00.0,31.5,24.6,03.7,0002.1,0008.43,0005.21,0004.75
